Flag for Canada Weather past 2 weeks in Greater Sudbury, Ontario, Canada

Now
46 °F

Clear.


Feels Like: 43 °F
Forecast: 50 / 76 °F
Wind: 7 mph from Northwest

Location: Sudbury

Current Time: Jul 24, 2014 at 4:57:22 AM

Latest Report: Jul 24, 2014 at 4:00 AM


Visibility: 12 mi

Pressure: 30.08 "Hg

Humidity: 100%

Dew point: 46 °F

Location of Greater SudburyLocation

Historic Weather in Greater Sudbury — Graph

°F

Greater Sudbury temperature yesterday

Maximum temperature yesterday: 70 °F (at 3:00 PM)
Minimum temperature yesterday: 55 °F (at 5:00 AM)
Average temperature yesterday: 62 °F

Past Weeks' High & Low Weather Summary

 TemperatureHumidityPressure
High81 °F (Jul 22, 12:00 PM)100% (Jul 9, 4:00 AM)30.24 "Hg (Jul 9, 4:00 AM)
Low46 °F (Jul 10, 4:00 AM)41% (Jul 10, 5:00 PM)29.64 "Hg (Jul 9, 4:00 AM)
Average62 °F76%29.99 "Hg
* Reported Jul 9 4:00 AM — Jul 24 4:00 AM, Greater Sudbury, Weather by CustomWeather, © 2014

Note: Actual official high and low records may vary slightly from our data, if they occured in-between our weather recording intervals... More about our weather records

Advertising

Greater Sudbury weather history for previous 24 hours

 ConditionsComfort  
Time TempWeatherWind HumidityBarometerVisibility
4:00 AM
Jul 24
46 °FClear.7 mph100%30.08 "Hg12 mi
3:00 AM46 °FClear.7 mph100%30.08 "Hg15 mi
2:00 AM48 °FClear.6 mph94%30.09 "Hg15 mi
1:00 AM50 °FClear.6 mph94%30.09 "Hg15 mi
12:00 AM54 °FPassing clouds.6 mph77%30.09 "Hg15 mi
11:00 PM
Jul 23
55 °FPassing clouds.5 mph77%30.08 "Hg15 mi
10:00 PM55 °FScattered clouds.3 mph72%30.08 "Hg20 mi
9:00 PM57 °FScattered clouds.3 mph72%30.07 "Hg20 mi
8:00 PM63 °FScattered clouds.10 mph59%30.06 "Hg20 mi
7:00 PM64 °FScattered clouds.15 mph52%30.07 "Hg20 mi
6:00 PM63 °FPartly sunny.13 mph59%30.08 "Hg20 mi
5:00 PM64 °FPartly sunny.17 mph52%30.07 "Hg20 mi
4:00 PM64 °FScattered clouds.17 mph49%30.07 "Hg20 mi
3:00 PM70 °FScattered clouds.20 mph43%30.05 "Hg20 mi
2:00 PM68 °FPassing clouds.16 mph43%30.04 "Hg20 mi
1:00 PM68 °FPassing clouds.16 mph49%30.03 "Hg20 mi
12:00 PM66 °FPassing clouds.16 mph52%30.04 "Hg20 mi
11:00 AM63 °FPassing clouds.16 mph59%30.04 "Hg20 mi
10:00 AM61 °FScattered clouds.16 mph63%30.04 "Hg20 mi
9:00 AM57 °FPartly sunny.14 mph72%30.03 "Hg20 mi
7:00 AM55 °FOvercast.12 mph82%29.99 "Hg20 mi
6:00 AM55 °FOvercast.18 mph82%29.94 "Hg20 mi
5:00 AM55 °FOvercast.16 mph88%29.90 "Hg15 mi
Weather by CustomWeather, © 2014

See weather overviewHow to use our weather pages